Flag for South Korea Weather past 2 weeks in Cheongju, South Korea

Now
48 °F

Sunny.


Feels Like: 48 °F
Forecast: 48 / 84 °F
Wind: 1 mph from North

Location: Chongju Ab

Current Time: May 25, 2015 at 7:37:56 AM

Latest Report: May 25, 2015 at 6:00 AM


Visibility: 10 mi

Pressure: 29.83 "Hg

Humidity: 87%

Dew point: 45 °F

Location of CheongjuLocation

Historic Weather in Cheongju — Graph

°F

Cheongju temperature yesterday

Maximum temperature yesterday: 82 °F (at 2:00 PM)
Minimum temperature yesterday: 50 °F (at 4:00 AM)
Average temperature yesterday: 66 °F

Past Weeks' High & Low Weather Summary

 TemperatureHumidityPressure
High82 °F (May 14, 2:00 PM)100% (May 20, 3:00 AM)30.09 "Hg (May 20, 3:00 AM)
Low46 °F (May 17, 3:00 AM)14% (May 17, 3:00 PM)29.47 "Hg (May 12, 1:00 AM)
Average64 °F60%29.79 "Hg
* Reported May 10 6:00 AM — May 25 6:00 AM, Cheongju, Weather by CustomWeather, © 2015

Note: Actual official high and low records may vary slightly from our data, if they occured in-between our weather recording intervals... More about our weather records

Advertising

Cheongju weather history for previous 24 hours

 ConditionsComfort  
Time TempWeatherWind HumidityBarometerVisibility
6:00 AM
Mon, May 25
48 °FSunny.1 mph87%29.83 "Hg10 mi
5:00 AM48 °FClear.1 mph82%29.80 "Hg10 mi
3:00 AM52 °FClear.1 mph82%29.80 "Hg10 mi
2:00 AM50 °FClear.1 mph71%29.80 "Hg10 mi
1:00 AM54 °FClear.1 mph54%29.77 "Hg10 mi
12:00 AM57 °FClear.1 mph48%29.77 "Hg10 mi
11:00 PM
Sun, May 24
55 °FClear.1 mph51%29.77 "Hg10 mi
10:00 PM63 °FClear.1 mph32%29.77 "Hg10 mi
9:00 PM64 °FClear.3 mph30%29.77 "Hg10 mi
8:00 PM70 °FClear.6 mph21%29.74 "Hg10 mi
7:00 PM73 °FSunny.7 mph17%29.74 "Hg10 mi
6:00 PM79 °FSunny.9 mph20%29.71 "Hg10 mi
5:00 PM81 °FSunny.9 mph14%29.71 "Hg10 mi
4:00 PM82 °FSunny.10 mph16%29.71 "Hg10 mi
3:00 PM82 °FSunny.10 mph19%29.71 "Hg10 mi
2:00 PM82 °FSunny.6 mph20%29.74 "Hg10 mi
1:00 PM79 °FSunny.5 mph28%29.77 "Hg10 mi
12:00 PM77 °FSunny.3 mph32%29.77 "Hg10 mi
11:00 AM75 °FSunny.3 mph31%29.80 "Hg10 mi
10:00 AM70 °FSunny.5 mph38%29.80 "Hg10 mi
9:00 AM66 °FSunny.5 mph46%29.83 "Hg10 mi
8:00 AM64 °FSunny.1 mph56%29.83 "Hg10 mi
7:00 AM57 °FSunny.1 mph67%29.83 "Hg10 mi
Weather by CustomWeather, © 2015

See weather overviewHow to use our weather pages